#timestamp,LO_Frequency,Hit,StdDev 
1530705615.5,286046998.5,N
1530705635.3,286047000.5,N
1530705655.1,286047000.1,N
1530705675.9,286046999.9,N
1530705695.7,286046999.9,N
1530705715.5,286046999.7,N
1530705735.4,286047002.8,N
1530705755.2,286046999.8,N
1530705775.1,286047002.5,N
1530705776.0,286047002.5,N
1530705795.8,286047002.4,N
1530705815.6,286047002.8,N
1530705835.5,286047000.4,N
1530705855.3,286046999.8,N
1530705875.1,286046999.7,N
1530705895.9,286047002.7,N
1530705915.3,286047002.4,N
1530705935.2,286046999.7,N
1530705955.9,286047000.3,N
1530705975.7,286047000.2,N
1530705995.6,286047000.5,N
1530706015.4,286047000.8,N
1530706035.3,286046998.3,N
1530706055.1,286046998.4,N
1530706056.0,286046998.4,N
1530706075.8,286047001.2,N
1530706095.7,286047001.1,N
1530706115.5,286047000.7,N
1530706135.3,286047000.3,N
1530706155.2,286046999.7,N
1530706175.0,286047000.5,N
1530706175.9,286047000.5,N
1530706195.8,286047000.5,N
1530706215.6,286047001.0,N
1530706235.4,286047000.0,N
1530706255.3,286047002.8,N
1530706275.1,286047002.0,N
1530706295.9,286047002.0,N
1530706315.7,286047001.9,N
1530706335.5,286047002.0,N
1530706355.4,286047001.3,N
1530706375.2,286047002.1,N
1530706395.0,286046999.7,N
1530706395.9,286046999.7,N
1530706415.8,286047000.2,N
1530706435.6,286047002.6,N
1530706455.5,286047002.1,N
1530706475.3,286047002.1,N
1530706495.1,286047001.9,N
1530706515.9,286047002.1,N
1530706535.7,286047002.0,N
1530706555.5,286047001.3,N
1530706575.4,286047004.4,Y
1530706595.2,286047001.8,P
1530706615.1,286047001.8,P
1530706616.0,286047001.8,P
1530706635.8,286047002.1,Y
1530706655.6,286047002.5,P
1530706675.5,286047000.5,N
1530706695.3,286047000.8,N
1530706715.1,286046998.1,N
1530706735.9,286046998.7,N
1530706755.7,286046999.0,N
1530706775.6,286046998.9,N
1530706795.4,286046999.2,N
1530706815.2,286046998.4,N
1530706835.1,286046998.6,N
1530706836.0,286046998.6,N
1530706855.8,286046999.3,N
1530706875.6,286046998.8,N
1530706895.5,286046998.3,N
1530706915.3,286046998.8,N
1530706935.2,286046999.3,N
1530706955.9,286046998.4,N
1530706975.7,286046998.7,N
1530706995.6,286046999.2,N
1530707015.4,286046998.4,N
1530707035.2,286046998.8,N
1530707055.1,286047001.1,N
1530707086.0,286046998.4,E
1530707095.0,286047000.7,N
1530707095.9,286047000.7,P
1530707115.8,286047001.2,P
1530707135.6,286046999.9,N
1530707155.4,286047000.9,N
1530707175.3,286047000.4,N
1530707195.1,286047000.5,N
1530707215.9,286047000.2,N
1530707235.7,286047002.4,Y
1530707255.5,286047002.8,P
1530707275.4,286047002.7,N
1530707295.2,286047002.6,N
1530707315.1,286047001.0,N
1530707316.0,286047001.0,N
1530707335.8,286046999.8,N
1530707355.6,286047001.0,N
1530707375.5,286047000.3,N
1530707395.3,286047000.5,N
1530707415.1,286047000.2,N
1530707435.9,286047000.4,N
1530707455.7,286046998.3,N
1530707475.6,286046998.6,N
1530707495.4,286047001.1,N
1530707515.2,286047000.8,N
1530707535.1,286047001.0,N
1530707536.0,286047001.0,N
1530707555.8,286047000.1,N
1530707575.6,286047000.5,N
1530707595.5,286047000.9,N
1530707615.3,286046999.8,N
1530707635.2,286047000.1,N
1530707655.9,286047000.2,N
1530707675.7,286046998.1,N
1530707695.6,286046999.4,N
1530707715.4,286046999.3,N
1530707735.3,286046998.5,N
1530707755.1,286046998.5,N
1530707756.0,286046998.5,N
1530707775.8,286046997.1,N
1530707795.7,286047000.9,N
1530707815.5,286046998.4,N
1530707835.4,286046998.3,N
1530707855.2,286046998.4,N
1530707875.0,286046996.9,N
1530707875.9,286046996.9,N
1530707895.8,286046996.7,N
1530707915.6,286046999.6,N
1530707935.4,286046997.2,N
1530707955.3,286046997.0,N
1530707975.1,286046998.8,N
1530707995.9,286046997.0,N
1530708015.7,286046999.1,N
1530708035.5,286046998.5,N
1530708055.4,286046999.0,N
1530708075.2,286046999.9,N
1530708095.0,286047001.8,N
1530708096.0,286047001.8,N
1530708115.8,286047002.0,N
1530708135.6,286047005.7,Y
1530708155.5,286047007.5,P
1530708175.3,286047008.8,N
1530708195.1,286047006.6,N
1530708215.9,286047005.1,N
1530708235.7,286047006.0,N
1530708255.6,286047003.8,N
1530708275.4,286047003.2,N
1530708295.2,286047003.1,N
1530708315.1,286047001.8,N
1530708316.0,286047001.8,N
1530708335.8,286047000.2,N
1530708355.6,286047000.1,N
1530708375.5,286047002.4,N
1530708395.3,286046999.7,N
1530708415.2,286047002.8,N
1530708435.9,286047000.1,N
1530708455.7,286046998.8,N
1530708475.6,286047001.0,N
1530708495.4,286047002.7,N
1530708515.3,286046999.7,N
1530708535.1,286047000.4,N
1530708536.0,286047000.4,N
1530708555.8,286047000.4,N
1530708575.7,286046997.0,N
1530708595.5,286046999.3,N
1530708615.4,286046997.0,N
1530708635.2,286046996.7,N
1530708655.0,286046997.2,N
1530708655.9,286046997.2,N
1530708675.8,286046997.8,N
1530708695.6,286046998.4,N
1530708715.4,286047001.0,N
1530708735.3,286046996.6,N
1530708755.1,286046996.9,N
1530708775.9,286046995.0,N
1530708795.7,286046995.7,N
1530708815.5,286046995.3,N
1530708835.4,286046996.0,N
1530708855.2,286046996.3,N
1530708875.1,286046993.5,N
1530708876.0,286046993.5,N
1530708895.8,286046994.3,N
1530708915.6,286046994.0,N
1530708935.5,286046993.7,N
1530708955.3,286046993.4,N
1530708975.2,286046996.2,N
1530708995.9,286046995.5,N
1530709015.7,286046997.3,N
1530709035.6,286046997.2,N
1530709055.4,286046995.1,N
1530709075.2,286046995.2,N
1530709095.1,286046995.7,N
1530709096.0,286046995.7,N
1530709115.8,286046995.7,N
1530709135.7,286046994.6,Y
1530709155.5,286046997.3,P
1530709175.3,286046997.1,P
1530709195.2,286046999.1,N
